User: anonymous   Login
Location: Unspecified
(0.0000°N, 0.0000°E)
Time: 08:48:28
(UTC+00:00)
Language:

LING QIAO - Orbit

View from above orbital plane
View from above orbital plane
View from above satellite
View from above satellite

Ground track
Ground track

The orbit is defined by the following mean orbital elements,

1 40136U          26145.60143037 +.00000000 +00000-0 +70619-4 0 00006
2 40136  98.7061 147.3795 0019774 237.9924 121.9337 14.30266755    02
Epoch (UTC): 25 May 2026 14:26:03
Eccentricity: 0.0019774
inclination: 98.7061°
perigee height: 777 km
apogee height: 805 km
right ascension of ascending node: 147.3795°
argument of perigee: 237.9924°
revolutions per day: 14.30266755
mean anomaly at epoch: 121.9337°

The dashed part of the orbit path shows where the satellite is in the earth's shadow,  

DLR